AirNav   Air Wisconsin Up To $57,000 Bonus
 
 307 users online  

GE99 Heaven's Landing Airport
Clayton, Georgia, USA

GOING TO CLAYTON?


FAA INFORMATION EFFECTIVE 15 AUGUST 2019

Location

FAA Identifier: GE99
Lat/Long: 34-54-51.0600N 083-27-33.9300W
34-54.851000N 083-27.565500W
34.9141833,-83.4594250
(estimated)
Elevation: 2724 ft. / 830.3 m (surveyed)
Variation: 05W (2005)
From city: 4 miles NW of CLAYTON, GA
Time zone: UTC -4 (UTC -5 during Standard Time)
Zip code: 30525

Airport Operations

Airport use: Private use. Permission required prior to landing
Activation date: 02/2004
Control tower: no
ARTCC: ATLANTA CENTER
FSS: MACON FLIGHT SERVICE STATION
NOTAMs facility: FDC (NOTAM-D service not available)
Attendance: 0900-1700
Wind indicator: yes
Segmented circle: no
Lights: MIRL RWY 05/23 AND PAPI RWY 23 CTAF.

Airport Communications

WX AWOS-3 at 1A5 (19 nm N): 118.225 (828-349-3156)
  • 122.9

Nearby radio navigation aids

VOR radial/distance  VOR name  Freq  Var
ODFr329/15.3FOOTHILLS VORTAC113.4000E
HRSr094/22.5HARRIS VORTAC109.8000E

Airport Services

Fuel available: 100LL JET-A

Runway Information

Runway 5/23

Dimensions: 5062 x 50 ft. / 1543 x 15 m
Surface: concrete
Runway edge lights: medium intensity
Runway edge markings: RWY END MARKINGS NSTD SIZE.
RUNWAY 5  RUNWAY 23
Latitude: 34-54.530000N34-55.172000N
Longitude: 083-27.889000W083-27.242000W
Elevation: 2686.0 ft.2735.0 ft.
Traffic pattern: rightleft
Markings: NSTD, in good conditionNSTD, in good condition
Visual slope indicator: 2-light PAPI on left (4.00 degrees glide path)
Touchdown point: yes, no lightsyes, no lights

Airport Ownership and Management from official FAA records

Ownership: Privately-owned
Owner: HEAVEN'S LANDING, LLC
863 ANDERSON DRIVE
CLAYTON, GA 30525
Phone 706-212-0017
Manager: MIKE CIOCHETTI, JR
863 ANDERSON DRIVE
CLAYTON, GA 30525
Phone 706-212-0017

Airport Operational Statistics

Aircraft based on the field: 29
Single engine airplanes: 15
Multi engine airplanes: 9
Jet airplanes: 3
Helicopters: 2
    

Additional Remarks

MOUNTAINOUS TERRAIN ALL QUADRANTS.
FOR CD CTC ATLANTA ARTCC AT 770-210-7692.

Instrument Procedures

There are no published instrument procedures at GE99.

Some nearby airports with instrument procedures:

1A5 - Macon County Airport (19 nm N)
KTOC - Toccoa Airport-RG Letourneau Field (21 nm SE)
KAJR - Habersham County Airport (25 nm S)
KRHP - Western Carolina Regional Airport (26 nm NW)
KDZJ - Blairsville Airport (27 nm W)
 
Loc | Ops | Rwys | IFR | FBO | Links
Com | Nav | Svcs | Stats | Notes
Area around GE99 (Heaven's Landing Airport)
 
Road maps at: MapQuest Bing Google
 
Aerial photo
WARNING: Photo may not be current or correct
Aerial photo of GE99 (Heaven's Landing Airport)
Photo taken 04-Jan-2011
looking east.

Do you have a better or more recent aerial photo of Heaven's Landing Airport that you would like to share? If so, please send us your photo.

 
Sectional chart

 
Airport distance calculator
Flying to Heaven's Landing Airport? Find the distance to fly.

From to GE99

Sunrise and sunset
Times for 23-Aug-2019
 Local
(UTC-4)
 Zulu
(UTC)
Morning civil twilight06:3510:35
Sunrise07:0111:01
Sunset20:1200:12
Evening civil twilight20:3800:38

Current date and time
Zulu (UTC)  23-Aug-2019 08:00:04
Local (UTC-4)  23-Aug-2019 04:00:04
 
METAR
K1A5 
19nm N 
230755Z AUTO 26004KT 10SM SCT005 BKN035 OVC043 20/20 A3014 RMK AO2 T02000195
KTOC 
21nm SE 
230735Z AUTO 00000KT 10SM SCT060 BKN070 24/21 A3004 RMK AO2 T02400208
KRHP 
25nm NW 
230735Z AUTO 00000KT 1SM +RA BKN008 BKN012 OVC020 21/21 A3008 RMK AO2 P0062 T02100210
KAJR 
25nm S 
230735Z AUTO 00000KT 10SM SCT048 BKN090 23/21 A3006 RMK AO2 T02250206
KDZJ 
27nm W 
230735Z AUTO 00000KT 10SM -VCTSRA BKN065 BKN070 OVC090 21/21 A3009 RMK AO2 LTG DSNT E P0004 T02110205
K24A 
27nm NE 
230420Z AUTO 00000KT 1 1/4SM -TSRA BR BKN002 BKN022 OVC065 18/18 A3018 RMK AO2 LTG DSNT ALQDS P0005 T01830182
KCEU 
32nm SE 
230754Z AUTO 00000KT 10SM FEW060 23/22 A3003 RMK AO2 SLP156 T02330217
TAF
KAND 
44nm SE 
230543Z 2306/2406 22004KT P6SM BKN060 FM231400 22004KT P6SM FEW040 SCT100 PROB30 2317/2321 4SM TSRA BKN045CB FM232100 24007KT P6SM -SHRA VCTS BKN050CB FM240100 22003KT P6SM VCSH SCT080 OVC120
NOTAMs
Click for the latest NOTAMs
NOTAMs are issued by the DoD/FAA and will open in a separate window not controlled by AirNav.

 

 
 

FBO, Fuel Providers, and Aircraft Ground Support

  
 Business Name 
 
 Contact 
 
 Services / Description 
 
Fuel Prices
 
Comments
  
Heaven's Landing MULTICOM 122.90
706-212-0017
706-490-2717
[web site]
[email]
Heaven's Landing - Fly In Living Like No Place on Earth!
- 5,200 Foot Private Concrete Runway
- GPS Approach
- 300 Home Sites averaging 1.5 acres
- Perfect location in the Mountains of N.E. Georgia
- Surrounded by the Chattahoochee National Forest
- 3.5 miles from downtown Clayton, Georgia
- 3.5 miles to Lake Burton
- Community Clubhouse
- Affiliated with Waterfall Country Club
- Homes, Hangars & Lots Available
- 100 LL & Jet A Fuel
Tours "by appointment" 7 days a week
Toll Free: 1-800-HEAVEN-2 (800-432-8362)
www.heavenslanding.com
Come & see why Heaven's Landing truly lives up to its name!
More info and photos of Heaven's Landing
Shell
100LL Jet A
AS --- $4.39 
SS $4.55 --- 
 Updated 21-Aug-2019
 
   write
AS=Assisted/Self Service
SS=Self service
Update Fuel Prices
 

Would you like to see your business listed on this page?

 If your business provides an interesting product or service to pilots, flight crews, aircraft, or users of the Heaven's Landing Airport, you should consider listing it here.  To start the listing process, click on the button below
 
Add a business
 

Other Pages about Heaven's Landing Airport

Update a link
 
Copyright © AirNav, LLC. All rights reserved. Privacy Policy  Contact